AAL3311 KDEN-KBNA

Flight info

Callsign AAL3311
Flight time 2h 1m
Altitude 39000
Route EXTAN7 SHAYK SLN BUM NMANN RYYMN3
Aircraft A320/M-SDE3FGHIRWY/LB1

Departure

Time 2026-05-08 01:20
Airport Denver International Airport (KDEN)

Arrival

Time 2026-05-08 03:21
Airport Nashville International Airport (KBNA)
Time Latitude Longitude Altitude Speed Heading
2026-05-08 01:01 39.85443 -104.67326 5387 ft 0 kts 144°
2026-05-08 01:08 39.85443 -104.67327 5387 ft 0 kts 144°
2026-05-08 01:10 39.85446 -104.67329 5382 ft 3 kts 144°
2026-05-08 01:11 39.85467 -104.67349 5383 ft 4 kts 144°
2026-05-08 01:11 39.85489 -104.67369 5382 ft 4 kts 144°
2026-05-08 01:11 39.85511 -104.67389 5386 ft 4 kts 144°
2026-05-08 01:11 39.85516 -104.67394 5386 ft 0 kts 144°
2026-05-08 01:13 39.85512 -104.67398 5385 ft 1 kts 201°
2026-05-08 01:13 39.85515 -104.67409 5385 ft 0 kts 291°
2026-05-08 01:14 39.85516 -104.67410 5385 ft 1 kts 291°
2026-05-08 01:14 39.85522 -104.67431 5381 ft 4 kts 289°
2026-05-08 01:14 39.85523 -104.67483 5386 ft 8 kts 270°
2026-05-08 01:15 39.85523 -104.67579 5386 ft 12 kts 270°
2026-05-08 01:15 39.85523 -104.67683 5386 ft 5 kts 270°
2026-05-08 01:15 39.85523 -104.67689 5386 ft 4 kts 270°
2026-05-08 01:15 39.85529 -104.67756 5386 ft 10 kts 291°
2026-05-08 01:16 39.85585 -104.67837 5386 ft 14 kts 302°
2026-05-08 01:16 39.85595 -104.67983 5386 ft 18 kts 269°
2026-05-08 01:16 39.85596 -104.68150 5386 ft 19 kts 271°
2026-05-08 01:16 39.85600 -104.68334 5376 ft 19 kts 272°
2026-05-08 01:17 39.85707 -104.68399 5371 ft 21 kts
2026-05-08 01:17 39.85854 -104.68399 5367 ft 22 kts 359°
2026-05-08 01:17 39.86012 -104.68396 5367 ft 23 kts 359°
2026-05-08 01:17 39.86166 -104.68396 5366 ft 22 kts 360°
2026-05-08 01:18 39.86325 -104.68395 5365 ft 23 kts
2026-05-08 01:18 39.86431 -104.68441 5366 ft 14 kts 288°
2026-05-08 01:18 39.86431 -104.68563 5368 ft 13 kts 268°
2026-05-08 01:18 39.86428 -104.68678 5368 ft 13 kts 270°
2026-05-08 01:19 39.86486 -104.68721 5367 ft 13 kts
2026-05-08 01:19 39.86744 -104.68717 5364 ft 72 kts
2026-05-08 01:19 39.87464 -104.68707 5361 ft 133 kts
2026-05-08 01:19 39.88553 -104.68685 5438 ft 173 kts
2026-05-08 01:20 39.89794 -104.68649 6075 ft 181 kts
2026-05-08 01:20 39.90981 -104.68095 6790 ft 190 kts 39°
2026-05-08 01:20 39.91570 -104.66538 7346 ft 206 kts 85°
2026-05-08 01:20 39.91163 -104.64692 7716 ft 223 kts 116°
2026-05-08 01:21 39.90405 -104.62854 7974 ft 246 kts 117°
2026-05-08 01:21 39.89555 -104.60800 8306 ft 270 kts 117°
2026-05-08 01:21 39.88638 -104.58543 8690 ft 294 kts 117°
2026-05-08 01:21 39.87665 -104.56119 9293 ft 308 kts 117°
2026-05-08 01:22 39.86665 -104.53614 9859 ft 315 kts 117°
2026-05-08 01:22 39.85656 -104.51074 10001 ft 320 kts 117°
2026-05-08 01:22 39.84591 -104.48389 10028 ft 343 kts 117°
2026-05-08 01:22 39.83487 -104.45607 10028 ft 348 kts 117°
2026-05-08 01:23 39.82361 -104.42772 10438 ft 355 kts 117°
2026-05-08 01:23 39.81293 -104.39881 11332 ft 356 kts 108°
2026-05-08 01:23 39.80880 -104.36748 12115 ft 358 kts 93°
2026-05-08 01:23 39.80731 -104.33501 12904 ft 362 kts 92°
2026-05-08 01:24 39.80475 -104.30226 13669 ft 366 kts 95°
2026-05-08 01:24 39.80177 -104.26917 14351 ft 370 kts 96°
2026-05-08 01:24 39.79845 -104.23579 15007 ft 375 kts 96°
2026-05-08 01:24 39.79479 -104.20202 15643 ft 380 kts 97°
2026-05-08 01:25 39.79089 -104.16777 16235 ft 386 kts 97°
2026-05-08 01:25 39.78686 -104.13307 16856 ft 391 kts 97°
2026-05-08 01:25 39.78289 -104.09789 17485 ft 395 kts 96°
2026-05-08 01:25 39.77902 -104.06234 18111 ft 400 kts 96°
2026-05-08 01:26 39.77517 -104.02634 18664 ft 404 kts 96°
2026-05-08 01:26 39.77135 -103.99050 19217 ft 407 kts 96°
2026-05-08 01:26 39.76744 -103.95385 19783 ft 411 kts 96°
2026-05-08 01:26 39.76344 -103.91690 20360 ft 415 kts 96°
2026-05-08 01:27 39.75910 -103.87969 20926 ft 418 kts 97°
2026-05-08 01:27 39.75603 -103.85490 21313 ft 421 kts 97°
2026-05-08 01:27 39.74955 -103.80444 22088 ft 425 kts 97°
2026-05-08 01:27 39.74461 -103.76641 22659 ft 429 kts 97°
2026-05-08 01:28 39.74007 -103.72800 23216 ft 432 kts 95°
2026-05-08 01:28 39.73763 -103.70233 23560 ft 434 kts 94°
2026-05-08 01:28 39.73367 -103.65047 24154 ft 438 kts 92°
2026-05-08 01:28 39.73107 -103.61090 24592 ft 441 kts 92°
2026-05-08 01:29 39.72844 -103.57100 25023 ft 445 kts 92°
2026-05-08 01:29 39.72561 -103.53089 25439 ft 448 kts 93°
2026-05-08 01:29 39.72255 -103.49041 25866 ft 452 kts 94°
2026-05-08 01:29 39.71930 -103.44969 26265 ft 455 kts 94°
2026-05-08 01:30 39.71592 -103.40869 26649 ft 458 kts 94°
2026-05-08 01:30 39.71247 -103.36743 27027 ft 462 kts 94°
2026-05-08 01:30 39.70905 -103.32636 27397 ft 465 kts 94°
2026-05-08 01:30 39.70557 -103.28455 27729 ft 468 kts 94°
2026-05-08 01:31 39.70206 -103.24230 28089 ft 471 kts 94°
2026-05-08 01:31 39.69857 -103.19986 28448 ft 474 kts 94°
2026-05-08 01:31 39.69507 -103.15718 28806 ft 477 kts 94°
2026-05-08 01:31 39.69153 -103.11418 29164 ft 481 kts 94°
2026-05-08 01:32 39.68790 -103.07086 29488 ft 484 kts 94°
2026-05-08 01:32 39.68423 -103.02730 29809 ft 487 kts 94°
2026-05-08 01:32 39.68058 -102.98404 30104 ft 490 kts 94°
2026-05-08 01:32 39.67685 -102.93996 30385 ft 492 kts 94°
2026-05-08 01:33 39.67310 -102.89573 30663 ft 494 kts 94°
2026-05-08 01:33 39.66932 -102.85134 30948 ft 496 kts 94°
2026-05-08 01:33 39.66550 -102.80678 31222 ft 498 kts 94°
2026-05-08 01:33 39.66162 -102.76202 31518 ft 499 kts 94°
2026-05-08 01:34 39.65773 -102.71735 31891 ft 498 kts 94°
2026-05-08 01:34 39.65383 -102.67273 32276 ft 497 kts 93°
2026-05-08 01:34 39.64994 -102.62824 32653 ft 496 kts 93°
2026-05-08 01:34 39.64609 -102.58439 33021 ft 495 kts 93°
2026-05-08 01:35 39.64216 -102.54005 33406 ft 494 kts 93°
2026-05-08 01:35 39.63823 -102.49581 33792 ft 493 kts 93°
2026-05-08 01:35 39.63430 -102.45164 34125 ft 492 kts 93°
2026-05-08 01:35 39.63036 -102.40757 34432 ft 492 kts 93°
2026-05-08 01:36 39.62641 -102.36352 34720 ft 492 kts 94°
2026-05-08 01:36 39.62243 -102.31947 34980 ft 492 kts 94°
2026-05-08 01:36 39.61845 -102.27538 35251 ft 492 kts 94°
2026-05-08 01:36 39.61581 -102.24619 35410 ft 492 kts 94°
2026-05-08 01:37 39.61182 -102.20213 35661 ft 492 kts 94°
2026-05-08 01:37 39.60646 -102.14378 35970 ft 492 kts 95°
2026-05-08 01:37 39.60239 -102.09973 36226 ft 492 kts 95°
2026-05-08 01:37 39.59829 -102.05569 36473 ft 492 kts 95°
2026-05-08 01:38 39.59418 -102.01177 36712 ft 492 kts 96°
2026-05-08 01:38 39.59152 -101.98258 36863 ft 492 kts 95°
2026-05-08 01:38 39.58784 -101.93854 37089 ft 492 kts 95°
2026-05-08 01:38 39.58444 -101.89442 37304 ft 492 kts 95°
2026-05-08 01:39 39.58118 -101.85032 37516 ft 492 kts 95°
2026-05-08 01:39 39.57682 -101.79190 37783 ft 492 kts 95°
2026-05-08 01:39 39.57343 -101.74782 37979 ft 492 kts 95°
2026-05-08 01:39 39.57106 -101.71800 38111 ft 492 kts 96°
2026-05-08 01:40 39.56747 -101.67389 38328 ft 492 kts 96°
2026-05-08 01:40 39.56386 -101.63037 38474 ft 493 kts 96°
2026-05-08 01:40 39.56014 -101.58613 38615 ft 494 kts 96°
2026-05-08 01:40 39.55643 -101.54191 38751 ft 494 kts 96°
2026-05-08 01:41 39.55275 -101.49768 38867 ft 495 kts 96°
2026-05-08 01:41 39.54526 -101.40900 38884 ft 495 kts 97°
2026-05-08 01:42 39.53441 -101.32087 38884 ft 495 kts 102°
2026-05-08 01:42 39.52056 -101.23397 38928 ft 497 kts 103°
2026-05-08 01:43 39.50641 -101.14622 38938 ft 498 kts 102°
2026-05-08 01:43 39.49314 -101.05816 38918 ft 499 kts 101°
2026-05-08 01:44 39.48027 -100.96992 38921 ft 499 kts 101°
2026-05-08 01:44 39.46722 -100.88174 38918 ft 499 kts 102°
2026-05-08 01:45 39.45397 -100.79424 38909 ft 499 kts 102°
2026-05-08 01:45 39.44049 -100.70620 38898 ft 499 kts 102°
2026-05-08 01:46 39.42696 -100.61818 38881 ft 499 kts 102°
2026-05-08 01:46 39.41340 -100.53013 38891 ft 500 kts 102°
2026-05-08 01:47 39.39985 -100.44260 38877 ft 500 kts 102°
2026-05-08 01:47 39.38613 -100.35435 38866 ft 501 kts 102°
2026-05-08 01:48 39.36541 -100.22189 38863 ft 502 kts 102°
2026-05-08 01:48 39.35160 -100.13410 38844 ft 502 kts 102°
2026-05-08 01:49 39.33755 -100.04560 38856 ft 503 kts 102°
2026-05-08 01:49 39.32342 -99.95696 38857 ft 504 kts 102°
2026-05-08 01:50 39.30926 -99.86829 38858 ft 504 kts 102°
2026-05-08 01:50 39.29502 -99.78015 38864 ft 505 kts 102°
2026-05-08 01:51 39.28063 -99.69124 38857 ft 507 kts 102°
2026-05-08 01:51 39.26620 -99.60219 38855 ft 507 kts 102°
2026-05-08 01:52 39.25165 -99.51309 38858 ft 508 kts 103°
2026-05-08 01:52 39.23709 -99.42449 38866 ft 508 kts 102°
2026-05-08 01:53 39.22230 -99.33524 38858 ft 509 kts 102°
2026-05-08 01:53 39.20752 -99.24589 38835 ft 510 kts 103°
2026-05-08 01:54 39.19265 -99.15646 38839 ft 510 kts 103°
2026-05-08 01:54 39.17763 -99.06699 38851 ft 511 kts 103°
2026-05-08 01:55 39.16269 -98.97804 38852 ft 512 kts 103°
2026-05-08 01:55 39.14755 -98.88840 38858 ft 512 kts 103°
2026-05-08 01:56 39.13229 -98.79874 38860 ft 512 kts 103°
2026-05-08 01:56 39.11699 -98.70910 38868 ft 513 kts 104°
2026-05-08 01:57 39.10163 -98.61950 38867 ft 512 kts 104°
2026-05-08 01:57 39.08628 -98.53056 38870 ft 512 kts 104°
2026-05-08 01:58 39.07071 -98.44111 38866 ft 512 kts 104°
2026-05-08 01:58 39.05511 -98.35179 38864 ft 512 kts 104°
2026-05-08 01:59 39.03950 -98.26238 38845 ft 513 kts 104°
2026-05-08 01:59 39.02389 -98.17348 38846 ft 514 kts 104°
2026-05-08 02:00 39.00800 -98.08393 38858 ft 514 kts 105°
2026-05-08 02:00 38.99200 -97.99424 38866 ft 515 kts 105°
2026-05-08 02:01 38.97606 -97.90454 38882 ft 515 kts 105°
2026-05-08 02:01 38.96006 -97.81481 38888 ft 516 kts 105°
2026-05-08 02:02 38.94401 -97.72564 38893 ft 516 kts 105°
2026-05-08 02:02 38.92775 -97.63587 38898 ft 516 kts 105°
2026-05-08 02:03 38.91107 -97.54620 38916 ft 516 kts 106°
2026-05-08 02:03 38.89345 -97.45680 38882 ft 517 kts 107°
2026-05-08 02:04 38.87558 -97.36737 38839 ft 517 kts 107°
2026-05-08 02:04 38.85803 -97.27838 38852 ft 518 kts 107°
2026-05-08 02:05 38.84052 -97.18862 38866 ft 519 kts 107°
2026-05-08 02:05 38.82285 -97.09883 38875 ft 519 kts 107°
2026-05-08 02:06 38.80503 -97.00912 38879 ft 519 kts 107°
2026-05-08 02:06 38.78710 -96.91943 38888 ft 519 kts 107°
2026-05-08 02:07 38.76925 -96.83044 38911 ft 519 kts 107°
2026-05-08 02:07 38.75119 -96.74079 38898 ft 519 kts 107°
2026-05-08 02:08 38.73304 -96.65120 38905 ft 520 kts 107°
2026-05-08 02:08 38.71485 -96.56162 38903 ft 520 kts 107°
2026-05-08 02:09 38.69673 -96.47265 38868 ft 520 kts 109°
2026-05-08 02:09 38.67839 -96.38288 38887 ft 522 kts 109°
2026-05-08 02:10 38.65984 -96.29288 38898 ft 524 kts 109°
2026-05-08 02:10 38.64125 -96.20272 38907 ft 525 kts 109°
2026-05-08 02:11 38.62253 -96.11249 38916 ft 525 kts 109°
2026-05-08 02:11 38.60382 -96.02285 38917 ft 526 kts 109°
2026-05-08 02:12 38.58501 -95.93284 38921 ft 527 kts 109°
2026-05-08 02:12 38.56601 -95.84228 38931 ft 527 kts 109°
2026-05-08 02:13 38.54695 -95.75176 38939 ft 528 kts 109°
2026-05-08 02:13 38.52787 -95.66185 38942 ft 528 kts 110°
2026-05-08 02:14 38.50852 -95.57128 38895 ft 529 kts 110°
2026-05-08 02:14 38.48917 -95.48057 38910 ft 530 kts 110°
2026-05-08 02:15 38.46973 -95.38982 38921 ft 530 kts 110°
2026-05-08 02:15 38.45019 -95.29911 38936 ft 531 kts 110°
2026-05-08 02:16 38.43075 -95.20884 38934 ft 531 kts 110°
2026-05-08 02:16 38.41104 -95.11797 38938 ft 532 kts 110°
2026-05-08 02:17 38.39124 -95.02717 38945 ft 532 kts 110°
2026-05-08 02:17 38.37131 -94.93629 38957 ft 532 kts 110°
2026-05-08 02:18 38.35132 -94.84540 38967 ft 533 kts 110°
2026-05-08 02:18 38.33143 -94.75501 38965 ft 534 kts 110°
2026-05-08 02:19 38.31138 -94.66401 38969 ft 534 kts 110°
2026-05-08 02:19 38.29117 -94.57296 38992 ft 534 kts 110°
2026-05-08 02:20 38.27151 -94.48168 38987 ft 538 kts 105°
2026-05-08 02:20 38.25903 -94.38829 38987 ft 539 kts 103°
2026-05-08 02:21 38.24661 -94.29418 38990 ft 540 kts 103°
2026-05-08 02:21 38.23411 -94.20001 38993 ft 540 kts 103°
2026-05-08 02:22 38.22153 -94.10578 39001 ft 541 kts 103°
2026-05-08 02:22 38.20896 -94.01144 39003 ft 541 kts 103°
2026-05-08 02:23 38.19637 -93.91773 39005 ft 542 kts 103°
2026-05-08 02:23 38.18359 -93.82333 39007 ft 542 kts 103°
2026-05-08 02:24 38.17070 -93.72892 39015 ft 542 kts 103°
2026-05-08 02:24 38.15770 -93.63445 39009 ft 543 kts 103°
2026-05-08 02:25 38.14461 -93.53997 39013 ft 543 kts 103°
2026-05-08 02:25 38.13148 -93.44582 38969 ft 544 kts 104°
2026-05-08 02:26 38.11824 -93.35111 38986 ft 545 kts 104°
2026-05-08 02:26 38.10495 -93.25687 38996 ft 546 kts 104°
2026-05-08 02:27 38.09144 -93.16187 39012 ft 547 kts 104°
2026-05-08 02:27 38.07794 -93.06686 39023 ft 547 kts 104°
2026-05-08 02:28 38.06436 -92.97175 39038 ft 548 kts 104°
2026-05-08 02:28 38.05077 -92.87727 39039 ft 548 kts 104°
2026-05-08 02:29 38.03694 -92.78212 39050 ft 548 kts 104°
2026-05-08 02:29 38.02299 -92.68701 39051 ft 549 kts 104°
2026-05-08 02:30 38.00902 -92.59185 39043 ft 549 kts 104°
2026-05-08 02:30 37.99508 -92.49716 39042 ft 550 kts 104°
2026-05-08 02:31 37.98099 -92.40183 39045 ft 551 kts 104°
2026-05-08 02:31 37.96677 -92.30642 39032 ft 551 kts 104°
2026-05-08 02:32 37.95238 -92.21108 39033 ft 551 kts 104°
2026-05-08 02:32 37.93804 -92.11635 39032 ft 551 kts 104°
2026-05-08 02:33 37.92359 -92.02087 38986 ft 553 kts 105°
2026-05-08 02:33 37.90901 -91.92518 38998 ft 554 kts 105°
2026-05-08 02:34 37.89424 -91.82935 39031 ft 555 kts 105°
2026-05-08 02:34 37.87934 -91.73338 39040 ft 556 kts 105°
2026-05-08 02:35 37.86460 -91.63793 39050 ft 556 kts 105°
2026-05-08 02:35 37.84970 -91.54193 39054 ft 556 kts 105°
2026-05-08 02:36 37.83462 -91.44590 39054 ft 557 kts 105°
2026-05-08 02:36 37.81947 -91.34982 39058 ft 557 kts 105°
2026-05-08 02:37 37.80416 -91.25368 39062 ft 558 kts 105°
2026-05-08 02:37 37.78897 -91.15883 39070 ft 558 kts 105°
2026-05-08 02:38 37.77346 -91.06269 39077 ft 558 kts 105°
2026-05-08 02:38 37.75804 -90.96721 39079 ft 558 kts 105°
2026-05-08 02:39 37.74250 -90.87107 39079 ft 559 kts 105°
2026-05-08 02:39 37.72675 -90.77495 39076 ft 559 kts 105°
2026-05-08 02:40 37.71099 -90.67886 39025 ft 559 kts 106°
2026-05-08 02:40 37.69516 -90.58264 39031 ft 560 kts 106°
2026-05-08 02:41 37.67921 -90.48698 39036 ft 561 kts 106°
2026-05-08 02:41 37.66305 -90.39062 39049 ft 562 kts 107°
2026-05-08 02:42 37.64687 -90.29412 39063 ft 562 kts 106°
2026-05-08 02:42 37.63067 -90.19823 39068 ft 562 kts 106°
2026-05-08 02:43 37.61427 -90.10176 39075 ft 563 kts 107°
2026-05-08 02:43 37.59784 -90.00527 39080 ft 563 kts 107°
2026-05-08 02:44 37.58138 -89.90877 39052 ft 563 kts 107°
2026-05-08 02:44 37.56475 -89.81222 39059 ft 564 kts 107°
2026-05-08 02:45 37.54815 -89.71637 39067 ft 564 kts 107°
2026-05-08 02:45 37.53133 -89.61985 39070 ft 564 kts 107°
2026-05-08 02:46 37.51450 -89.52331 39070 ft 564 kts 107°
2026-05-08 02:46 37.49758 -89.42688 39070 ft 564 kts 107°
2026-05-08 02:47 37.48084 -89.33044 39069 ft 564 kts 106°
2026-05-08 02:47 37.46521 -89.23422 39055 ft 565 kts 106°
2026-05-08 02:48 37.44963 -89.13719 39047 ft 566 kts 106°
2026-05-08 02:48 37.43378 -89.04006 39062 ft 567 kts 106°
2026-05-08 02:49 37.41754 -88.94296 39060 ft 567 kts 106°
2026-05-08 02:49 37.40122 -88.84658 39062 ft 568 kts 106°
2026-05-08 02:50 37.38481 -88.74941 39066 ft 569 kts 106°
2026-05-08 02:50 37.36847 -88.65228 39058 ft 569 kts 106°
2026-05-08 02:51 37.36019 -88.60334 38730 ft 571 kts 106°
2026-05-08 02:51 37.35188 -88.55437 37639 ft 571 kts 107°
2026-05-08 02:51 37.34374 -88.50635 37176 ft 555 kts 107°
2026-05-08 02:51 37.33571 -88.45912 36369 ft 550 kts 107°
2026-05-08 02:52 37.32775 -88.41298 35607 ft 545 kts 107°
2026-05-08 02:52 37.31975 -88.36674 34883 ft 539 kts 107°
2026-05-08 02:52 37.31187 -88.32097 34184 ft 533 kts 107°
2026-05-08 02:52 37.30408 -88.27578 33614 ft 523 kts 107°
2026-05-08 02:53 37.29653 -88.23184 33302 ft 511 kts 107°
2026-05-08 02:53 37.28898 -88.18831 32941 ft 508 kts 107°
2026-05-08 02:53 37.28143 -88.14521 32590 ft 503 kts 107°
2026-05-08 02:53 37.27394 -88.10245 32361 ft 498 kts 107°
2026-05-08 02:54 37.26652 -88.06003 32032 ft 498 kts 107°
2026-05-08 02:54 37.25919 -88.01819 31528 ft 497 kts 106°
2026-05-08 02:54 37.25178 -87.97591 31064 ft 495 kts 106°
2026-05-08 02:54 37.24438 -87.93381 30614 ft 493 kts 105°
2026-05-08 02:55 37.23700 -87.89185 30150 ft 491 kts 105°
2026-05-08 02:55 37.22227 -87.80884 29238 ft 483 kts 105°
2026-05-08 02:55 37.21467 -87.76806 28802 ft 477 kts 109°
2026-05-08 02:56 37.20370 -87.72934 28392 ft 466 kts 119°
2026-05-08 02:56 37.18903 -87.69366 28002 ft 456 kts 128°
2026-05-08 02:56 37.17118 -87.66140 27581 ft 445 kts 136°
2026-05-08 02:56 37.15220 -87.63099 27190 ft 441 kts 136°
2026-05-08 02:57 37.13337 -87.60083 26773 ft 438 kts 135°
2026-05-08 02:57 37.11492 -87.57125 26349 ft 435 kts 135°
2026-05-08 02:57 37.09636 -87.54153 25943 ft 432 kts 135°
2026-05-08 02:57 37.07790 -87.51194 25502 ft 430 kts 135°
2026-05-08 02:58 37.05955 -87.48252 25071 ft 428 kts 135°
2026-05-08 02:58 37.04126 -87.45322 24615 ft 426 kts 134°
2026-05-08 02:58 37.02302 -87.42407 24170 ft 425 kts 134°
2026-05-08 02:58 37.00477 -87.39504 23717 ft 424 kts 134°
2026-05-08 02:59 36.98655 -87.36608 23206 ft 423 kts 134°
2026-05-08 02:59 36.96843 -87.33726 22767 ft 420 kts 134°
2026-05-08 02:59 36.95051 -87.30868 22313 ft 416 kts 134°
2026-05-08 02:59 36.93295 -87.28066 21891 ft 413 kts 134°
2026-05-08 03:00 36.91524 -87.25250 21457 ft 411 kts 134°
2026-05-08 03:00 36.89761 -87.22456 21031 ft 409 kts 134°
2026-05-08 03:00 36.88005 -87.19676 20605 ft 406 kts 134°
2026-05-08 03:00 36.86266 -87.16924 20340 ft 399 kts 133°
2026-05-08 03:01 36.84552 -87.14204 19887 ft 399 kts 133°
2026-05-08 03:01 36.82778 -87.11580 19381 ft 390 kts 141°
2026-05-08 03:01 36.80751 -87.09449 18919 ft 374 kts 153°
2026-05-08 03:01 36.78539 -87.07846 18545 ft 363 kts 162°
2026-05-08 03:02 36.76306 -87.06476 18123 ft 361 kts 161°
2026-05-08 03:02 36.74033 -87.05077 17730 ft 358 kts 161°
2026-05-08 03:02 36.71833 -87.03729 17367 ft 357 kts 161°
2026-05-08 03:02 36.69608 -87.02370 16986 ft 355 kts 161°
2026-05-08 03:03 36.67392 -87.01017 16527 ft 355 kts 161°
2026-05-08 03:03 36.65179 -86.99668 16151 ft 352 kts 161°
2026-05-08 03:03 36.63000 -86.98334 15784 ft 347 kts 161°
2026-05-08 03:03 36.60843 -86.97013 15420 ft 344 kts 161°
2026-05-08 03:04 36.58705 -86.95705 15059 ft 342 kts 161°
2026-05-08 03:04 36.56579 -86.94405 14696 ft 339 kts 161°
2026-05-08 03:04 36.54463 -86.93118 14341 ft 338 kts 161°
2026-05-08 03:04 36.52352 -86.91838 13984 ft 337 kts 161°
2026-05-08 03:05 36.50245 -86.90565 13598 ft 336 kts 161°
2026-05-08 03:05 36.48178 -86.89312 13244 ft 334 kts 160°
2026-05-08 03:05 36.46099 -86.88051 12893 ft 331 kts 160°
2026-05-08 03:05 36.44037 -86.86799 12550 ft 328 kts 160°
2026-05-08 03:06 36.41994 -86.85560 12200 ft 325 kts 159°
2026-05-08 03:06 36.39970 -86.84333 11982 ft 322 kts 159°
2026-05-08 03:06 36.37961 -86.83117 11857 ft 322 kts 159°
2026-05-08 03:06 36.35943 -86.81895 11409 ft 323 kts 158°
2026-05-08 03:07 36.33929 -86.80674 11033 ft 321 kts 158°
2026-05-08 03:07 36.31928 -86.79460 10682 ft 319 kts 157°
2026-05-08 03:07 36.29946 -86.78257 10333 ft 316 kts 157°
2026-05-08 03:07 36.28005 -86.77083 10076 ft 310 kts 156°
2026-05-08 03:08 36.26086 -86.75979 9953 ft 298 kts 163°
2026-05-08 03:08 36.24117 -86.75447 9792 ft 284 kts 180°
2026-05-08 03:08 36.22176 -86.75576 9384 ft 278 kts 196°
2026-05-08 03:08 36.20350 -86.76230 9115 ft 270 kts 201°
2026-05-08 03:09 36.18585 -86.76906 8979 ft 259 kts 201°
2026-05-08 03:09 36.16903 -86.77530 8989 ft 247 kts 201°
2026-05-08 03:09 36.15226 -86.78142 8395 ft 257 kts 200°
2026-05-08 03:09 36.13510 -86.78758 8068 ft 255 kts 199°
2026-05-08 03:10 36.11842 -86.79346 7923 ft 244 kts 199°
2026-05-08 03:10 36.10248 -86.79903 7803 ft 233 kts 199°
2026-05-08 03:10 36.08691 -86.80446 7695 ft 234 kts 199°
2026-05-08 03:10 36.07151 -86.80984 7573 ft 232 kts 199°
2026-05-08 03:11 36.05625 -86.81512 7459 ft 224 kts 198°
2026-05-08 03:11 36.04135 -86.82026 7353 ft 222 kts 198°
2026-05-08 03:11 36.02656 -86.82539 7243 ft 220 kts 198°
2026-05-08 03:11 36.01183 -86.83053 7141 ft 220 kts 198°
2026-05-08 03:12 35.99716 -86.83567 7014 ft 220 kts 198°
2026-05-08 03:12 35.98224 -86.84089 6558 ft 223 kts 197°
2026-05-08 03:12 35.96734 -86.84605 6100 ft 222 kts 197°
2026-05-08 03:12 35.95249 -86.85119 5633 ft 221 kts 197°
2026-05-08 03:13 35.93777 -86.85629 5214 ft 217 kts 197°
2026-05-08 03:13 35.92343 -86.86128 4822 ft 212 kts 196°
2026-05-08 03:13 35.90950 -86.86611 4394 ft 210 kts 196°
2026-05-08 03:13 35.89517 -86.86891 3980 ft 210 kts 177°
2026-05-08 03:14 35.88133 -86.86375 3602 ft 208 kts 146°
2026-05-08 03:14 35.87162 -86.85120 3228 ft 204 kts 117°
2026-05-08 03:14 35.86841 -86.83456 2994 ft 200 kts 86°
2026-05-08 03:14 35.87215 -86.81824 2998 ft 200 kts 58°
2026-05-08 03:15 35.88158 -86.80598 2998 ft 195 kts 36°
2026-05-08 03:15 35.89203 -86.79603 2996 ft 187 kts 37°
2026-05-08 03:15 35.90221 -86.78626 3006 ft 184 kts 36°
2026-05-08 03:15 35.91232 -86.77655 3007 ft 184 kts 36°
2026-05-08 03:16 35.92237 -86.76687 3006 ft 184 kts 37°
2026-05-08 03:16 35.93258 -86.75746 3006 ft 183 kts 30°
2026-05-08 03:16 35.94410 -86.75143 3011 ft 183 kts 17°
2026-05-08 03:16 35.95567 -86.74686 2991 ft 161 kts 17°
2026-05-08 03:17 35.96568 -86.74288 3002 ft 144 kts 17°
2026-05-08 03:17 35.97504 -86.73917 3009 ft 138 kts 17°
2026-05-08 03:17 35.98404 -86.73560 3017 ft 135 kts 17°
2026-05-08 03:17 35.99296 -86.73207 2922 ft 134 kts 17°
2026-05-08 03:18 36.00175 -86.72832 2703 ft 132 kts 19°
2026-05-08 03:18 36.01035 -86.72423 2527 ft 132 kts 20°
2026-05-08 03:18 36.01889 -86.72020 2375 ft 131 kts 18°
2026-05-08 03:18 36.02749 -86.71653 2196 ft 130 kts 18°
2026-05-08 03:19 36.03618 -86.71338 2021 ft 130 kts 12°
2026-05-08 03:19 36.04494 -86.71085 1832 ft 129 kts 14°
2026-05-08 03:19 36.05342 -86.70778 1671 ft 129 kts 17°
2026-05-08 03:19 36.06201 -86.70445 1470 ft 130 kts 16°
2026-05-08 03:20 36.07065 -86.70099 1289 ft 131 kts 18°
2026-05-08 03:20 36.07937 -86.69746 1122 ft 132 kts 16°
2026-05-08 03:20 36.08815 -86.69402 931 ft 132 kts 17°
2026-05-08 03:20 36.09689 -86.69048 724 ft 132 kts 17°
2026-05-08 03:21 36.10560 -86.68706 591 ft 130 kts 16°
2026-05-08 03:21 36.11306 -86.68408 576 ft 90 kts 18°
2026-05-08 03:21 36.11774 -86.68226 578 ft 51 kts 18°
2026-05-08 03:21 36.11988 -86.68121 576 ft 24 kts 52°
2026-05-08 03:22 36.12028 -86.67999 578 ft 0 kts 62°
2026-05-08 03:22 36.12032 -86.67988 577 ft 5 kts 62°
2026-05-08 03:22 36.12059 -86.67927 577 ft 11 kts 62°
2026-05-08 03:23 36.12067 -86.67909 578 ft 2 kts 62°
2026-05-08 03:23 36.12079 -86.67882 581 ft 5 kts 62°
2026-05-08 03:23 36.12102 -86.67830 580 ft 9 kts 54°
2026-05-08 03:23 36.12186 -86.67767 580 ft 19 kts 44°
2026-05-08 03:24 36.12241 -86.67643 580 ft 2 kts 56°
2026-05-08 03:24 36.12264 -86.67612 578 ft 9 kts 44°
2026-05-08 03:24 36.12337 -86.67527 584 ft 18 kts 43°
2026-05-08 03:24 36.12348 -86.67514 580 ft 0 kts 43°
2026-05-08 03:25 36.12372 -86.67488 580 ft 17 kts 41°
2026-05-08 03:25 36.12487 -86.67372 581 ft 24 kts 43°
2026-05-08 03:25 36.12569 -86.67251 582 ft 13 kts 104°
2026-05-08 03:26 36.12511 -86.67163 575 ft 13 kts 134°
2026-05-08 03:26 36.12472 -86.67111 576 ft 0 kts 133°
2026-05-08 03:26 36.12458 -86.67094 575 ft 11 kts 133°
2026-05-08 03:26 36.12431 -86.66995 575 ft 14 kts 40°
2026-05-08 03:27 36.12524 -86.66930 572 ft 17 kts 30°
2026-05-08 03:27 36.12636 -86.66858 576 ft 20 kts 12°
2026-05-08 03:27 36.12736 -86.66820 572 ft 8 kts 35°
2026-05-08 03:27 36.12782 -86.66793 574 ft 6 kts 346°
2026-05-08 03:28 36.12797 -86.66815 569 ft 2 kts 308°
2026-05-08 03:28 36.12801 -86.66843 571 ft 5 kts 271°
2026-05-08 03:28 36.12801 -86.66851 569 ft 0 kts 269°